Time,TemperatureF,DewpointF,PressureIn,WindDirection,WindDirectionDegrees,WindSpeedMPH,WindSpeedGustMPH,Humidity,HourlyPrecipIn,Conditions,Clouds,dailyrainin,SoftwareType,DateUTC
2013-10-20 00:02:00,54.0,-99.9,28.49,North,-999,-999.0,-999.0,-999,-99.99,,,-99.99,,2013-10-20 04:02:00,
2013-10-20 00:03:00,53.0,-99.9,28.49,North,-999,-999.0,-999.0,-999,-99.99,,,-99.99,,2013-10-20 04:03:00,
2013-10-20 00:04:00,53.9,-99.9,28.49,North,-999,-999.0,-999.0,-999,-99.99,,,-99.99,,2013-10-20 04:04:00,
2013-10-20 00:06:00,53.9,-99.9,28.49,North,-999,-999.0,-999.0,-999,-99.99,,,-99.99,,2013-10-20 04:06:00,
2013-10-20 00:12:00,53.7,-99.9,28.46,North,-999,-999.0,-999.0,-999,-99.99,,,-99.99,,2013-10-20 04:12:00,
2013-10-20 00:14:00,53.6,-99.9,28.49,North,-999,-999.0,-999.0,-999,-99.99,,,-99.99,,2013-10-20 04:14:00,
2013-10-20 00:20:00,53.5,-99.9,28.49,North,-999,-999.0,-999.0,-999,-99.99,,,-99.99,,2013-10-20 04:20:00,
2013-10-20 00:24:00,53.2,-99.9,28.49,North,-999,-999.0,-999.0,-999,-99.99,,,-99.99,,2013-10-20 04:24:00,
2013-10-20 00:28:00,53.1,-99.9,28.49,North,-999,-999.0,-999.0,-999,-99.99,,,-99.99,,2013-10-20 04:28:00,
2013-10-20 00:34:00,53.0,-99.9,28.49,North,-999,-999.0,-999.0,-999,-99.99,,,-99.99,,2013-10-20 04:34:00,
2013-10-20 00:40:00,53.0,-99.9,28.49,North,-999,-999.0,-999.0,-999,-99.99,,,-99.99,,2013-10-20 04:40:00,
2013-10-20 00:48:00,53.2,-99.9,28.46,North,-999,-999.0,-999.0,-999,-99.99,,,-99.99,,2013-10-20 04:48:00,
2013-10-20 00:54:00,53.2,-99.9,28.49,North,-999,-999.0,-999.0,-999,-99.99,,,-99.99,,2013-10-20 04:54:00,
2013-10-20 01:00:00,53.2,-99.9,28.49,North,-999,-999.0,-999.0,-999,-99.99,,,-99.99,,2013-10-20 05:00:00,
2013-10-20 01:06:00,53.3,-99.9,28.46,North,-999,-999.0,-999.0,-999,-99.99,,,-99.99,,2013-10-20 05:06:00,
2013-10-20 01:12:00,53.4,-99.9,28.46,North,-999,-999.0,-999.0,-999,-99.99,,,-99.99,,2013-10-20 05:12:00,
2013-10-20 01:18:00,53.4,-99.9,28.49,North,-999,-999.0,-999.0,-999,-99.99,,,-99.99,,2013-10-20 05:18:00,
2013-10-20 01:24:00,53.4,-99.9,28.49,North,-999,-999.0,-999.0,-999,-99.99,,,-99.99,,2013-10-20 05:24:00,
2013-10-20 01:30:00,53.5,-99.9,28.49,North,-999,-999.0,-999.0,-999,-99.99,,,-99.99,,2013-10-20 05:30:00,
2013-10-20 01:36:00,53.5,-99.9,28.49,North,-999,-999.0,-999.0,-999,-99.99,,,-99.99,,2013-10-20 05:36:00,
2013-10-20 01:42:00,53.4,-99.9,28.49,North,-999,-999.0,-999.0,-999,-99.99,,,-99.99,,2013-10-20 05:42:00,
2013-10-20 01:48:00,53.5,-99.9,28.49,North,-999,-999.0,-999.0,-999,-99.99,,,-99.99,,2013-10-20 05:48:00,
2013-10-20 01:54:00,53.5,-99.9,28.49,North,-999,-999.0,-999.0,-999,-99.99,,,-99.99,,2013-10-20 05:54:00,
2013-10-20 02:00:00,53.4,-99.9,28.49,North,-999,-999.0,-999.0,-999,-99.99,,,-99.99,,2013-10-20 06:00:00,
2013-10-20 02:06:00,53.2,-99.9,28.49,North,-999,-999.0,-999.0,-999,-99.99,,,-99.99,,2013-10-20 06:06:00,
2013-10-20 02:12:00,53.2,-99.9,28.49,North,-999,-999.0,-999.0,-999,-99.99,,,-99.99,,2013-10-20 06:12:00,
2013-10-20 02:18:00,53.2,-99.9,28.49,North,-999,-999.0,-999.0,-999,-99.99,,,-99.99,,2013-10-20 06:18:00,
2013-10-20 02:24:00,53.3,-99.9,28.49,North,-999,-999.0,-999.0,-999,-99.99,,,-99.99,,2013-10-20 06:24:00,
2013-10-20 02:30:00,53.2,-99.9,28.49,North,-999,-999.0,-999.0,-999,-99.99,,,-99.99,,2013-10-20 06:30:00,
2013-10-20 02:36:00,53.1,-99.9,28.49,North,-999,-999.0,-999.0,-999,-99.99,,,-99.99,,2013-10-20 06:36:00,
2013-10-20 02:42:00,53.1,-99.9,28.49,North,-999,-999.0,-999.0,-999,-99.99,,,-99.99,,2013-10-20 06:42:00,
2013-10-20 02:48:00,53.2,-99.9,28.49,North,-999,-999.0,-999.0,-999,-99.99,,,-99.99,,2013-10-20 06:48:00,
2013-10-20 02:54:00,53.0,-99.9,28.52,North,-999,-999.0,-999.0,-999,-99.99,,,-99.99,,2013-10-20 06:54:00,
2013-10-20 03:00:00,50.6,-99.9,28.52,North,-999,-999.0,-999.0,-999,-99.99,,,-99.99,,2013-10-20 07:00:00,
2013-10-20 03:06:00,48.2,-99.9,28.52,North,-999,-999.0,-999.0,-999,-99.99,,,-99.99,,2013-10-20 07:06:00,
2013-10-20 03:12:00,47.9,-99.9,28.52,North,-999,-999.0,-999.0,-999,-99.99,,,-99.99,,2013-10-20 07:12:00,
2013-10-20 03:18:00,47.7,-99.9,28.52,North,-999,-999.0,-999.0,-999,-99.99,,,-99.99,,2013-10-20 07:18:00,
2013-10-20 03:24:00,47.4,-99.9,28.52,North,-999,-999.0,-999.0,-999,-99.99,,,-99.99,,2013-10-20 07:24:00,
2013-10-20 03:30:00,47.2,-99.9,28.56,North,-999,-999.0,-999.0,-999,-99.99,,,-99.99,,2013-10-20 07:30:00,
2013-10-20 03:36:00,47.1,-99.9,28.52,North,-999,-999.0,-999.0,-999,-99.99,,,-99.99,,2013-10-20 07:36:00,
2013-10-20 03:42:00,46.8,-99.9,28.56,North,-999,-999.0,-999.0,-999,-99.99,,,-99.99,,2013-10-20 07:42:00,
2013-10-20 03:48:00,46.4,-99.9,28.56,North,-999,-999.0,-999.0,-999,-99.99,,,-99.99,,2013-10-20 07:48:00,
2013-10-20 03:54:00,46.3,-99.9,28.56,North,-999,-999.0,-999.0,-999,-99.99,,,-99.99,,2013-10-20 07:54:00,
2013-10-20 04:00:00,46.4,-99.9,28.56,North,-999,-999.0,-999.0,-999,-99.99,,,-99.99,,2013-10-20 08:00:00,
2013-10-20 04:06:00,46.2,-99.9,28.56,North,-999,-999.0,-999.0,-999,-99.99,,,-99.99,,2013-10-20 08:06:00,
2013-10-20 04:12:00,46.1,-99.9,28.56,North,-999,-999.0,-999.0,-999,-99.99,,,-99.99,,2013-10-20 08:12:00,
2013-10-20 04:18:00,46.1,-99.9,28.56,North,-999,-999.0,-999.0,-999,-99.99,,,-99.99,,2013-10-20 08:18:00,
2013-10-20 04:24:00,45.9,-99.9,28.59,North,-999,-999.0,-999.0,-999,-99.99,,,-99.99,,2013-10-20 08:24:00,
2013-10-20 04:30:00,45.4,-99.9,28.56,North,-999,-999.0,-999.0,-999,-99.99,,,-99.99,,2013-10-20 08:30:00,
2013-10-20 04:36:00,45.1,-99.9,28.56,North,-999,-999.0,-999.0,-999,-99.99,,,-99.99,,2013-10-20 08:36:00,
2013-10-20 04:42:00,45.0,-99.9,28.56,North,-999,-999.0,-999.0,-999,-99.99,,,-99.99,,2013-10-20 08:42:00,
2013-10-20 04:48:00,45.1,-99.9,28.56,North,-999,-999.0,-999.0,-999,-99.99,,,-99.99,,2013-10-20 08:48:00,
2013-10-20 04:54:00,45.0,-99.9,28.56,North,-999,-999.0,-999.0,-999,-99.99,,,-99.99,,2013-10-20 08:54:00,
2013-10-20 05:00:00,45.0,-99.9,28.56,North,-999,-999.0,-999.0,-999,-99.99,,,-99.99,,2013-10-20 09:00:00,
2013-10-20 05:06:00,45.0,-99.9,28.59,North,-999,-999.0,-999.0,-999,-99.99,,,-99.99,,2013-10-20 09:06:00,
2013-10-20 05:12:00,45.0,-99.9,28.59,North,-999,-999.0,-999.0,-999,-99.99,,,-99.99,,2013-10-20 09:12:00,
2013-10-20 05:18:00,45.0,-99.9,28.59,North,-999,-999.0,-999.0,-999,-99.99,,,-99.99,,2013-10-20 09:18:00,
2013-10-20 05:24:00,45.0,-99.9,28.59,North,-999,-999.0,-999.0,-999,-99.99,,,-99.99,,2013-10-20 09:24:00,
2013-10-20 05:30:00,45.2,-99.9,28.59,North,-999,-999.0,-999.0,-999,-99.99,,,-99.99,,2013-10-20 09:30:00,
2013-10-20 05:36:00,45.2,-99.9,28.59,North,-999,-999.0,-999.0,-999,-99.99,,,-99.99,,2013-10-20 09:36:00,
2013-10-20 05:42:00,45.1,-99.9,28.59,North,-999,-999.0,-999.0,-999,-99.99,,,-99.99,,2013-10-20 09:42:00,
2013-10-20 05:48:00,45.1,-99.9,28.59,North,-999,-999.0,-999.0,-999,-99.99,,,-99.99,,2013-10-20 09:48:00,
2013-10-20 05:54:00,45.2,-99.9,28.59,North,-999,-999.0,-999.0,-999,-99.99,,,-99.99,,2013-10-20 09:54:00,
2013-10-20 06:00:00,45.2,-99.9,28.59,North,-999,-999.0,-999.0,-999,-99.99,,,-99.99,,2013-10-20 10:00:00,
2013-10-20 06:06:00,45.1,-99.9,28.56,North,-999,-999.0,-999.0,-999,-99.99,,,-99.99,,2013-10-20 10:06:00,
2013-10-20 06:12:00,44.8,-99.9,28.59,North,-999,-999.0,-999.0,-999,-99.99,,,-99.99,,2013-10-20 10:12:00,
2013-10-20 06:18:00,44.9,-99.9,28.59,North,-999,-999.0,-999.0,-999,-99.99,,,-99.99,,2013-10-20 10:18:00,
2013-10-20 06:24:00,44.9,-99.9,28.59,North,-999,-999.0,-999.0,-999,-99.99,,,-99.99,,2013-10-20 10:24:00,
2013-10-20 06:30:00,44.5,-99.9,28.59,North,-999,-999.0,-999.0,-999,-99.99,,,-99.99,,2013-10-20 10:30:00,
2013-10-20 06:36:00,44.4,-99.9,28.59,North,-999,-999.0,-999.0,-999,-99.99,,,-99.99,,2013-10-20 10:36:00,
2013-10-20 06:42:00,44.0,-99.9,28.59,North,-999,-999.0,-999.0,-999,-99.99,,,-99.99,,2013-10-20 10:42:00,
2013-10-20 06:48:00,43.6,-99.9,28.59,North,-999,-999.0,-999.0,-999,-99.99,,,-99.99,,2013-10-20 10:48:00,
2013-10-20 06:54:00,43.6,-99.9,28.62,North,-999,-999.0,-999.0,-999,-99.99,,,-99.99,,2013-10-20 10:54:00,
2013-10-20 07:00:00,43.7,-99.9,28.62,North,-999,-999.0,-999.0,-999,-99.99,,,-99.99,,2013-10-20 11:00:00,
2013-10-20 07:06:00,43.7,-99.9,28.59,North,-999,-999.0,-999.0,-999,-99.99,,,-99.99,,2013-10-20 11:06:00,
2013-10-20 07:12:00,43.7,-99.9,28.62,North,-999,-999.0,-999.0,-999,-99.99,,,-99.99,,2013-10-20 11:12:00,
2013-10-20 07:18:00,43.7,-99.9,28.62,North,-999,-999.0,-999.0,-999,-99.99,,,-99.99,,2013-10-20 11:18:00,
2013-10-20 07:24:00,43.7,-99.9,28.62,North,-999,-999.0,-999.0,-999,-99.99,,,-99.99,,2013-10-20 11:24:00,
2013-10-20 07:30:00,43.8,-99.9,28.59,North,-999,-999.0,-999.0,-999,-99.99,,,-99.99,,2013-10-20 11:30:00,
2013-10-20 07:36:00,43.7,-99.9,28.62,North,-999,-999.0,-999.0,-999,-99.99,,,-99.99,,2013-10-20 11:36:00,
2013-10-20 07:42:00,43.6,-99.9,28.62,North,-999,-999.0,-999.0,-999,-99.99,,,-99.99,,2013-10-20 11:42:00,
2013-10-20 07:48:00,43.4,-99.9,28.62,North,-999,-999.0,-999.0,-999,-99.99,,,-99.99,,2013-10-20 11:48:00,
2013-10-20 07:54:00,43.1,-99.9,28.62,North,-999,-999.0,-999.0,-999,-99.99,,,-99.99,,2013-10-20 11:54:00,
2013-10-20 08:00:00,43.3,-99.9,28.62,North,-999,-999.0,-999.0,-999,-99.99,,,-99.99,,2013-10-20 12:00:00,
2013-10-20 08:06:00,43.6,-99.9,28.62,North,-999,-999.0,-999.0,-999,-99.99,,,-99.99,,2013-10-20 12:06:00,
2013-10-20 08:12:00,43.7,-99.9,28.62,North,-999,-999.0,-999.0,-999,-99.99,,,-99.99,,2013-10-20 12:12:00,
2013-10-20 08:18:00,43.9,-99.9,28.62,North,-999,-999.0,-999.0,-999,-99.99,,,-99.99,,2013-10-20 12:18:00,
2013-10-20 08:24:00,44.0,-99.9,28.65,North,-999,-999.0,-999.0,-999,-99.99,,,-99.99,,2013-10-20 12:24:00,
2013-10-20 08:30:00,44.0,-99.9,28.65,North,-999,-999.0,-999.0,-999,-99.99,,,-99.99,,2013-10-20 12:30:00,
2013-10-20 08:36:00,43.9,-99.9,28.65,North,-999,-999.0,-999.0,-999,-99.99,,,-99.99,,2013-10-20 12:36:00,
2013-10-20 08:42:00,44.1,-99.9,28.65,North,-999,-999.0,-999.0,-999,-99.99,,,-99.99,,2013-10-20 12:42:00,
2013-10-20 08:48:00,44.1,-99.9,28.65,North,-999,-999.0,-999.0,-999,-99.99,,,-99.99,,2013-10-20 12:48:00,
2013-10-20 08:54:00,44.3,-99.9,28.65,North,-999,-999.0,-999.0,-999,-99.99,,,-99.99,,2013-10-20 12:54:00,
2013-10-20 09:00:00,44.4,-99.9,28.65,North,-999,-999.0,-999.0,-999,-99.99,,,-99.99,,2013-10-20 13:00:00,
2013-10-20 09:06:00,44.6,-99.9,28.65,North,-999,-999.0,-999.0,-999,-99.99,,,-99.99,,2013-10-20 13:06:00,
2013-10-20 09:12:00,45.0,-99.9,28.65,North,-999,-999.0,-999.0,-999,-99.99,,,-99.99,,2013-10-20 13:12:00,
2013-10-20 09:18:00,46.2,-99.9,28.68,North,-999,-999.0,-999.0,-999,-99.99,,,-99.99,,2013-10-20 13:18:00,
2013-10-20 09:24:00,46.9,-99.9,28.68,North,-999,-999.0,-999.0,-999,-99.99,,,-99.99,,2013-10-20 13:24:00,
2013-10-20 09:30:00,47.2,-99.9,28.65,North,-999,-999.0,-999.0,-999,-99.99,,,-99.99,,2013-10-20 13:30:00,
2013-10-20 09:36:00,47.0,-99.9,28.68,North,-999,-999.0,-999.0,-999,-99.99,,,-99.99,,2013-10-20 13:36:00,
2013-10-20 09:42:00,47.1,-99.9,28.65,North,-999,-999.0,-999.0,-999,-99.99,,,-99.99,,2013-10-20 13:42:00,
2013-10-20 09:48:00,48.1,-99.9,28.68,North,-999,-999.0,-999.0,-999,-99.99,,,-99.99,,2013-10-20 13:48:00,
2013-10-20 09:54:00,48.4,-99.9,28.65,North,-999,-999.0,-999.0,-999,-99.99,,,-99.99,,2013-10-20 13:54:00,
2013-10-20 10:00:00,48.6,-99.9,28.68,North,-999,-999.0,-999.0,-999,-99.99,,,-99.99,,2013-10-20 14:00:00,
2013-10-20 10:06:00,50.5,-99.9,28.68,North,-999,-999.0,-999.0,-999,-99.99,,,-99.99,,2013-10-20 14:06:00,
2013-10-20 10:12:00,52.7,-99.9,28.68,North,-999,-999.0,-999.0,-999,-99.99,,,-99.99,,2013-10-20 14:12:00,
2013-10-20 10:18:00,53.6,-99.9,28.65,North,-999,-999.0,-999.0,-999,-99.99,,,-99.99,,2013-10-20 14:18:00,
2013-10-20 10:24:00,54.3,-99.9,28.68,North,-999,-999.0,-999.0,-999,-99.99,,,-99.99,,2013-10-20 14:24:00,
2013-10-20 10:30:00,54.6,-99.9,28.68,North,-999,-999.0,-999.0,-999,-99.99,,,-99.99,,2013-10-20 14:30:00,
2013-10-20 10:36:00,54.0,-99.9,28.68,North,-999,-999.0,-999.0,-999,-99.99,,,-99.99,,2013-10-20 14:36:00,
2013-10-20 10:42:00,52.8,-99.9,28.68,North,-999,-999.0,-999.0,-999,-99.99,,,-99.99,,2013-10-20 14:42:00,
2013-10-20 10:48:00,52.6,-99.9,28.68,North,-999,-999.0,-999.0,-999,-99.99,,,-99.99,,2013-10-20 14:48:00,
2013-10-20 10:54:00,52.7,-99.9,28.68,North,-999,-999.0,-999.0,-999,-99.99,,,-99.99,,2013-10-20 14:54:00,
2013-10-20 11:00:00,52.1,-99.9,28.68,North,-999,-999.0,-999.0,-999,-99.99,,,-99.99,,2013-10-20 15:00:00,
2013-10-20 11:06:00,52.1,-99.9,28.68,North,-999,-999.0,-999.0,-999,-99.99,,,-99.99,,2013-10-20 15:06:00,
2013-10-20 11:12:00,53.2,-99.9,28.68,North,-999,-999.0,-999.0,-999,-99.99,,,-99.99,,2013-10-20 15:12:00,
2013-10-20 11:18:00,55.5,-99.9,28.68,North,-999,-999.0,-999.0,-999,-99.99,,,-99.99,,2013-10-20 15:18:00,
2013-10-20 11:24:00,55.9,-99.9,28.68,North,-999,-999.0,-999.0,-999,-99.99,,,-99.99,,2013-10-20 15:24:00,
2013-10-20 11:30:00,54.3,-99.9,28.68,North,-999,-999.0,-999.0,-999,-99.99,,,-99.99,,2013-10-20 15:30:00,
2013-10-20 11:36:00,53.3,-99.9,28.68,North,-999,-999.0,-999.0,-999,-99.99,,,-99.99,,2013-10-20 15:36:00,
2013-10-20 11:42:00,53.3,-99.9,28.68,North,-999,-999.0,-999.0,-999,-99.99,,,-99.99,,2013-10-20 15:42:00,
2013-10-20 11:48:00,52.8,-99.9,28.68,North,-999,-999.0,-999.0,-999,-99.99,,,-99.99,,2013-10-20 15:48:00,
2013-10-20 11:54:00,52.6,-99.9,28.68,North,-999,-999.0,-999.0,-999,-99.99,,,-99.99,,2013-10-20 15:54:00,
2013-10-20 12:00:00,52.4,-99.9,28.68,North,-999,-999.0,-999.0,-999,-99.99,,,-99.99,,2013-10-20 16:00:00,
2013-10-20 12:06:00,52.1,-99.9,28.68,North,-999,-999.0,-999.0,-999,-99.99,,,-99.99,,2013-10-20 16:06:00,
2013-10-20 12:12:00,53.0,-99.9,28.68,North,-999,-999.0,-999.0,-999,-99.99,,,-99.99,,2013-10-20 16:12:00,
2013-10-20 12:18:00,56.3,-99.9,28.68,North,-999,-999.0,-999.0,-999,-99.99,,,-99.99,,2013-10-20 16:18:00,
2013-10-20 12:24:00,58.0,-99.9,28.68,North,-999,-999.0,-999.0,-999,-99.99,,,-99.99,,2013-10-20 16:24:00,
2013-10-20 12:30:00,57.4,-99.9,28.68,North,-999,-999.0,-999.0,-999,-99.99,,,-99.99,,2013-10-20 16:30:00,
2013-10-20 12:36:00,56.9,-99.9,28.68,North,-999,-999.0,-999.0,-999,-99.99,,,-99.99,,2013-10-20 16:36:00,
2013-10-20 12:42:00,57.9,-99.9,28.68,North,-999,-999.0,-999.0,-999,-99.99,,,-99.99,,2013-10-20 16:42:00,
2013-10-20 12:48:00,57.7,-99.9,28.68,North,-999,-999.0,-999.0,-999,-99.99,,,-99.99,,2013-10-20 16:48:00,
2013-10-20 12:52:00,57.0,-99.9,28.68,North,-999,-999.0,-999.0,-999,-99.99,,,-99.99,,2013-10-20 16:52:00,
2013-10-20 12:58:00,55.8,-99.9,28.68,North,-999,-999.0,-999.0,-999,-99.99,,,-99.99,,2013-10-20 16:58:00,
2013-10-20 13:04:00,55.7,-99.9,28.68,North,-999,-999.0,-999.0,-999,-99.99,,,-99.99,,2013-10-20 17:04:00,
2013-10-20 13:10:00,55.1,-99.9,28.68,North,-999,-999.0,-999.0,-999,-99.99,,,-99.99,,2013-10-20 17:10:00,
2013-10-20 13:16:00,55.1,-99.9,28.68,North,-999,-999.0,-999.0,-999,-99.99,,,-99.99,,2013-10-20 17:16:00,
2013-10-20 13:22:00,55.0,-99.9,28.68,North,-999,-999.0,-999.0,-999,-99.99,,,-99.99,,2013-10-20 17:22:00,
2013-10-20 13:28:00,54.4,-99.9,28.68,North,-999,-999.0,-999.0,-999,-99.99,,,-99.99,,2013-10-20 17:28:00,
2013-10-20 13:34:00,54.7,-99.9,28.68,North,-999,-999.0,-999.0,-999,-99.99,,,-99.99,,2013-10-20 17:34:00,
2013-10-20 13:40:00,55.3,-99.9,28.68,North,-999,-999.0,-999.0,-999,-99.99,,,-99.99,,2013-10-20 17:40:00,
2013-10-20 13:46:00,55.0,-99.9,28.68,North,-999,-999.0,-999.0,-999,-99.99,,,-99.99,,2013-10-20 17:46:00,
2013-10-20 13:52:00,54.6,-99.9,28.68,North,-999,-999.0,-999.0,-999,-99.99,,,-99.99,,2013-10-20 17:52:00,
2013-10-20 13:58:00,54.7,-99.9,28.68,North,-999,-999.0,-999.0,-999,-99.99,,,-99.99,,2013-10-20 17:58:00,
2013-10-20 14:04:00,54.4,-99.9,28.68,North,-999,-999.0,-999.0,-999,-99.99,,,-99.99,,2013-10-20 18:04:00,
2013-10-20 14:10:00,54.7,-99.9,28.68,North,-999,-999.0,-999.0,-999,-99.99,,,-99.99,,2013-10-20 18:10:00,
2013-10-20 14:16:00,55.5,-99.9,28.68,North,-999,-999.0,-999.0,-999,-99.99,,,-99.99,,2013-10-20 18:16:00,
2013-10-20 14:22:00,55.5,-99.9,28.68,North,-999,-999.0,-999.0,-999,-99.99,,,-99.99,,2013-10-20 18:22:00,
2013-10-20 14:28:00,55.0,-99.9,28.68,North,-999,-999.0,-999.0,-999,-99.99,,,-99.99,,2013-10-20 18:28:00,
2013-10-20 14:34:00,55.4,-99.9,28.68,North,-999,-999.0,-999.0,-999,-99.99,,,-99.99,,2013-10-20 18:34:00,
2013-10-20 14:40:00,56.4,-99.9,28.68,North,-999,-999.0,-999.0,-999,-99.99,,,-99.99,,2013-10-20 18:40:00,
2013-10-20 14:46:00,55.7,-99.9,28.68,North,-999,-999.0,-999.0,-999,-99.99,,,-99.99,,2013-10-20 18:46:00,
2013-10-20 14:52:00,54.5,-99.9,28.68,North,-999,-999.0,-999.0,-999,-99.99,,,-99.99,,2013-10-20 18:52:00,
2013-10-20 14:58:00,54.4,-99.9,28.68,North,-999,-999.0,-999.0,-999,-99.99,,,-99.99,,2013-10-20 18:58:00,
2013-10-20 15:04:00,54.2,-99.9,28.72,North,-999,-999.0,-999.0,-999,-99.99,,,-99.99,,2013-10-20 19:04:00,
2013-10-20 15:10:00,54.2,-99.9,28.68,North,-999,-999.0,-999.0,-999,-99.99,,,-99.99,,2013-10-20 19:10:00,
2013-10-20 15:16:00,54.1,-99.9,28.68,North,-999,-999.0,-999.0,-999,-99.99,,,-99.99,,2013-10-20 19:16:00,
2013-10-20 15:22:00,53.9,-99.9,28.68,North,-999,-999.0,-999.0,-999,-99.99,,,-99.99,,2013-10-20 19:22:00,
2013-10-20 15:28:00,53.8,-99.9,28.68,North,-999,-999.0,-999.0,-999,-99.99,,,-99.99,,2013-10-20 19:28:00,
2013-10-20 15:34:00,53.7,-99.9,28.68,North,-999,-999.0,-999.0,-999,-99.99,,,-99.99,,2013-10-20 19:34:00,
2013-10-20 15:40:00,53.6,-99.9,28.68,North,-999,-999.0,-999.0,-999,-99.99,,,-99.99,,2013-10-20 19:40:00,
2013-10-20 15:46:00,53.8,-99.9,28.68,North,-999,-999.0,-999.0,-999,-99.99,,,-99.99,,2013-10-20 19:46:00,
2013-10-20 15:52:00,54.2,-99.9,28.72,North,-999,-999.0,-999.0,-999,-99.99,,,-99.99,,2013-10-20 19:52:00,
2013-10-20 15:58:00,54.4,-99.9,28.72,North,-999,-999.0,-999.0,-999,-99.99,,,-99.99,,2013-10-20 19:58:00,
2013-10-20 16:04:00,54.7,-99.9,28.68,North,-999,-999.0,-999.0,-999,-99.99,,,-99.99,,2013-10-20 20:04:00,
2013-10-20 16:10:00,55.1,-99.9,28.68,North,-999,-999.0,-999.0,-999,-99.99,,,-99.99,,2013-10-20 20:10:00,
2013-10-20 16:16:00,55.2,-99.9,28.68,North,-999,-999.0,-999.0,-999,-99.99,,,-99.99,,2013-10-20 20:16:00,
2013-10-20 16:22:00,54.9,-99.9,28.68,North,-999,-999.0,-999.0,-999,-99.99,,,-99.99,,2013-10-20 20:22:00,
2013-10-20 16:28:00,54.3,-99.9,28.72,North,-999,-999.0,-999.0,-999,-99.99,,,-99.99,,2013-10-20 20:28:00,
2013-10-20 16:34:00,53.9,-99.9,28.68,North,-999,-999.0,-999.0,-999,-99.99,,,-99.99,,2013-10-20 20:34:00,
2013-10-20 16:40:00,53.8,-99.9,28.72,North,-999,-999.0,-999.0,-999,-99.99,,,-99.99,,2013-10-20 20:40:00,
2013-10-20 16:46:00,53.8,-99.9,28.72,North,-999,-999.0,-999.0,-999,-99.99,,,-99.99,,2013-10-20 20:46:00,
2013-10-20 16:52:00,53.3,-99.9,28.72,North,-999,-999.0,-999.0,-999,-99.99,,,-99.99,,2013-10-20 20:52:00,
2013-10-20 16:58:00,52.8,-99.9,28.72,North,-999,-999.0,-999.0,-999,-99.99,,,-99.99,,2013-10-20 20:58:00,
2013-10-20 17:04:00,52.3,-99.9,28.72,North,-999,-999.0,-999.0,-999,-99.99,,,-99.99,,2013-10-20 21:04:00,
2013-10-20 17:10:00,52.0,-99.9,28.72,North,-999,-999.0,-999.0,-999,-99.99,,,-99.99,,2013-10-20 21:10:00,
2013-10-20 17:16:00,51.9,-99.9,28.72,North,-999,-999.0,-999.0,-999,-99.99,,,-99.99,,2013-10-20 21:16:00,
2013-10-20 17:22:00,51.8,-99.9,28.72,North,-999,-999.0,-999.0,-999,-99.99,,,-99.99,,2013-10-20 21:22:00,
2013-10-20 17:28:00,51.5,-99.9,28.72,North,-999,-999.0,-999.0,-999,-99.99,,,-99.99,,2013-10-20 21:28:00,
2013-10-20 17:34:00,51.3,-99.9,28.72,North,-999,-999.0,-999.0,-999,-99.99,,,-99.99,,2013-10-20 21:34:00,
2013-10-20 17:40:00,51.1,-99.9,28.75,North,-999,-999.0,-999.0,-999,-99.99,,,-99.99,,2013-10-20 21:40:00,
2013-10-20 17:46:00,50.7,-99.9,28.72,North,-999,-999.0,-999.0,-999,-99.99,,,-99.99,,2013-10-20 21:46:00,
2013-10-20 17:52:00,50.4,-99.9,28.72,North,-999,-999.0,-999.0,-999,-99.99,,,-99.99,,2013-10-20 21:52:00,
2013-10-20 17:58:00,50.3,-99.9,28.72,North,-999,-999.0,-999.0,-999,-99.99,,,-99.99,,2013-10-20 21:58:00,
2013-10-20 18:04:00,49.7,-99.9,28.72,North,-999,-999.0,-999.0,-999,-99.99,,,-99.99,,2013-10-20 22:04:00,
2013-10-20 18:10:00,49.1,-99.9,28.72,North,-999,-999.0,-999.0,-999,-99.99,,,-99.99,,2013-10-20 22:10:00,
2013-10-20 18:16:00,48.9,-99.9,28.72,North,-999,-999.0,-999.0,-999,-99.99,,,-99.99,,2013-10-20 22:16:00,
2013-10-20 18:22:00,48.5,-99.9,28.75,North,-999,-999.0,-999.0,-999,-99.99,,,-99.99,,2013-10-20 22:22:00,
2013-10-20 18:28:00,47.9,-99.9,28.72,North,-999,-999.0,-999.0,-999,-99.99,,,-99.99,,2013-10-20 22:28:00,
2013-10-20 18:34:00,47.2,-99.9,28.75,North,-999,-999.0,-999.0,-999,-99.99,,,-99.99,,2013-10-20 22:34:00,
2013-10-20 18:40:00,46.8,-99.9,28.75,North,-999,-999.0,-999.0,-999,-99.99,,,-99.99,,2013-10-20 22:40:00,
2013-10-20 18:46:00,46.3,-99.9,28.75,North,-999,-999.0,-999.0,-999,-99.99,,,-99.99,,2013-10-20 22:46:00,
2013-10-20 18:52:00,45.9,-99.9,28.75,North,-999,-999.0,-999.0,-999,-99.99,,,-99.99,,2013-10-20 22:52:00,
2013-10-20 18:58:00,45.4,-99.9,28.75,North,-999,-999.0,-999.0,-999,-99.99,,,-99.99,,2013-10-20 22:58:00,
2013-10-20 19:04:00,45.0,-99.9,28.75,North,-999,-999.0,-999.0,-999,-99.99,,,-99.99,,2013-10-20 23:04:00,
2013-10-20 19:10:00,44.5,-99.9,28.75,North,-999,-999.0,-999.0,-999,-99.99,,,-99.99,,2013-10-20 23:10:00,
2013-10-20 19:16:00,44.1,-99.9,28.75,North,-999,-999.0,-999.0,-999,-99.99,,,-99.99,,2013-10-20 23:16:00,
2013-10-20 19:22:00,43.8,-99.9,28.75,North,-999,-999.0,-999.0,-999,-99.99,,,-99.99,,2013-10-20 23:22:00,
2013-10-20 19:28:00,43.5,-99.9,28.75,North,-999,-999.0,-999.0,-999,-99.99,,,-99.99,,2013-10-20 23:28:00,
2013-10-20 19:34:00,43.3,-99.9,28.78,North,-999,-999.0,-999.0,-999,-99.99,,,-99.99,,2013-10-20 23:34:00,
2013-10-20 19:40:00,42.9,-99.9,28.78,North,-999,-999.0,-999.0,-999,-99.99,,,-99.99,,2013-10-20 23:40:00,
2013-10-20 19:46:00,42.4,-99.9,28.78,North,-999,-999.0,-999.0,-999,-99.99,,,-99.99,,2013-10-20 23:46:00,
2013-10-20 19:52:00,42.1,-99.9,28.75,North,-999,-999.0,-999.0,-999,-99.99,,,-99.99,,2013-10-20 23:52:00,
2013-10-20 19:58:00,41.9,-99.9,28.78,North,-999,-999.0,-999.0,-999,-99.99,,,-99.99,,2013-10-20 23:58:00,
2013-10-20 20:04:00,41.3,-99.9,28.78,North,-999,-999.0,-999.0,-999,-99.99,,,-99.99,,2013-10-21 00:04:00,
2013-10-20 20:10:00,41.1,-99.9,28.75,North,-999,-999.0,-999.0,-999,-99.99,,,-99.99,,2013-10-21 00:10:00,
2013-10-20 20:16:00,41.1,-99.9,28.78,North,-999,-999.0,-999.0,-999,-99.99,,,-99.99,,2013-10-21 00:16:00,
2013-10-20 20:22:00,41.0,-99.9,28.78,North,-999,-999.0,-999.0,-999,-99.99,,,-99.99,,2013-10-21 00:22:00,
2013-10-20 20:28:00,40.7,-99.9,28.75,North,-999,-999.0,-999.0,-999,-99.99,,,-99.99,,2013-10-21 00:28:00,
2013-10-20 20:34:00,40.3,-99.9,28.78,North,-999,-999.0,-999.0,-999,-99.99,,,-99.99,,2013-10-21 00:34:00,
2013-10-20 20:40:00,40.2,-99.9,28.75,North,-999,-999.0,-999.0,-999,-99.99,,,-99.99,,2013-10-21 00:40:00,
2013-10-20 20:46:00,40.1,-99.9,28.78,North,-999,-999.0,-999.0,-999,-99.99,,,-99.99,,2013-10-21 00:46:00,
2013-10-20 20:52:00,40.0,-99.9,28.75,North,-999,-999.0,-999.0,-999,-99.99,,,-99.99,,2013-10-21 00:52:00,
2013-10-20 20:58:00,39.9,-99.9,28.75,North,-999,-999.0,-999.0,-999,-99.99,,,-99.99,,2013-10-21 00:58:00,
2013-10-20 21:04:00,39.6,-99.9,28.78,North,-999,-999.0,-999.0,-999,-99.99,,,-99.99,,2013-10-21 01:04:00,
2013-10-20 21:10:00,39.2,-99.9,28.78,North,-999,-999.0,-999.0,-999,-99.99,,,-99.99,,2013-10-21 01:10:00,
2013-10-20 21:16:00,39.2,-99.9,28.78,North,-999,-999.0,-999.0,-999,-99.99,,,-99.99,,2013-10-21 01:16:00,
2013-10-20 21:22:00,39.1,-99.9,28.78,North,-999,-999.0,-999.0,-999,-99.99,,,-99.99,,2013-10-21 01:22:00,
2013-10-20 21:28:00,39.0,-99.9,28.78,North,-999,-999.0,-999.0,-999,-99.99,,,-99.99,,2013-10-21 01:28:00,
2013-10-20 21:34:00,39.0,-99.9,28.78,North,-999,-999.0,-999.0,-999,-99.99,,,-99.99,,2013-10-21 01:34:00,
2013-10-20 21:40:00,38.7,-99.9,28.78,North,-999,-999.0,-999.0,-999,-99.99,,,-99.99,,2013-10-21 01:40:00,
2013-10-20 21:46:00,38.3,-99.9,28.78,North,-999,-999.0,-999.0,-999,-99.99,,,-99.99,,2013-10-21 01:46:00,
2013-10-20 21:52:00,38.3,-99.9,28.81,North,-999,-999.0,-999.0,-999,-99.99,,,-99.99,,2013-10-21 01:52:00,
2013-10-20 21:58:00,38.3,-99.9,28.78,North,-999,-999.0,-999.0,-999,-99.99,,,-99.99,,2013-10-21 01:58:00,
2013-10-20 22:04:00,38.3,-99.9,28.78,North,-999,-999.0,-999.0,-999,-99.99,,,-99.99,,2013-10-21 02:04:00,
2013-10-20 22:10:00,38.6,-99.9,28.78,North,-999,-999.0,-999.0,-999,-99.99,,,-99.99,,2013-10-21 02:10:00,
2013-10-20 22:16:00,39.0,-99.9,28.81,North,-999,-999.0,-999.0,-999,-99.99,,,-99.99,,2013-10-21 02:16:00,
2013-10-20 22:22:00,39.0,-99.9,28.81,North,-999,-999.0,-999.0,-999,-99.99,,,-99.99,,2013-10-21 02:22:00,
2013-10-20 22:28:00,39.0,-99.9,28.81,North,-999,-999.0,-999.0,-999,-99.99,,,-99.99,,2013-10-21 02:28:00,
2013-10-20 22:34:00,39.1,-99.9,28.78,North,-999,-999.0,-999.0,-999,-99.99,,,-99.99,,2013-10-21 02:34:00,
2013-10-20 22:40:00,39.3,-99.9,28.78,North,-999,-999.0,-999.0,-999,-99.99,,,-99.99,,2013-10-21 02:40:00,
2013-10-20 22:46:00,39.5,-99.9,28.78,North,-999,-999.0,-999.0,-999,-99.99,,,-99.99,,2013-10-21 02:46:00,
2013-10-20 22:52:00,39.5,-99.9,28.78,North,-999,-999.0,-999.0,-999,-99.99,,,-99.99,,2013-10-21 02:52:00,
2013-10-20 22:58:00,39.6,-99.9,28.81,North,-999,-999.0,-999.0,-999,-99.99,,,-99.99,,2013-10-21 02:58:00,
2013-10-20 23:04:00,40.0,-99.9,28.81,North,-999,-999.0,-999.0,-999,-99.99,,,-99.99,,2013-10-21 03:04:00,
2013-10-20 23:10:00,40.3,-99.9,28.78,North,-999,-999.0,-999.0,-999,-99.99,,,-99.99,,2013-10-21 03:10:00,
2013-10-20 23:16:00,40.4,-99.9,28.81,North,-999,-999.0,-999.0,-999,-99.99,,,-99.99,,2013-10-21 03:16:00,
2013-10-20 23:22:00,40.4,-99.9,28.81,North,-999,-999.0,-999.0,-999,-99.99,,,-99.99,,2013-10-21 03:22:00,
2013-10-20 23:28:00,40.4,-99.9,28.81,North,-999,-999.0,-999.0,-999,-99.99,,,-99.99,,2013-10-21 03:28:00,
2013-10-20 23:34:00,40.6,-99.9,28.81,North,-999,-999.0,-999.0,-999,-99.99,,,-99.99,,2013-10-21 03:34:00,
2013-10-20 23:40:00,40.6,-99.9,28.81,North,-999,-999.0,-999.0,-999,-99.99,,,-99.99,,2013-10-21 03:40:00,
2013-10-20 23:46:00,40.7,-99.9,28.81,North,-999,-999.0,-999.0,-999,-99.99,,,-99.99,,2013-10-21 03:46:00,
2013-10-20 23:52:00,41.0,-99.9,28.81,North,-999,-999.0,-999.0,-999,-99.99,,,-99.99,,2013-10-21 03:52:00,
2013-10-20 23:58:00,41.1,-99.9,28.78,North,-999,-999.0,-999.0,-999,-99.99,,,-99.99,,2013-10-21 03:58:00,